Short Creek, WV

8:41 PM EST on December 07, 2016 (GMT -0500)
Wheeling-Ohio County

Weather History for KHLG - December, 2012

Change the Weather History Date:

Sunday, December 9, 2012

  Actual Average Record
Temperature  
Mean Temperature 49 °F 35 °F  
Max Temperature 58 °F 42 °F 68 °F (1952)
Min Temperature 39 °F 28 °F 12 °F (1989)
Degree Days  
Heating Degree Days 16 30  
Month to date heating degree days 153 260  
Since 1 July heating degree days 1378 1388  
Cooling Degree Days 0    
Month to date cooling degree days 0  
Year to date cooling degree days 996  
Moisture  
Dew Point 44 °F    
Average Humidity 86    
Maximum Humidity 96    
Minimum Humidity 76    
Precipitation  
Precipitation 0.18 in 0.08 in 0.40 in (2004)
Month to date precipitation 2.11 0.72  
Sea Level Pressure  
Sea Level Pressure 29.97 in    
Wind  
Wind Speed 9 mph (ESE)    
Max Wind Speed 18 mph    
Max Gust Speed 26 mph    
Visibility 10 miles    
Events Rain    
T = Trace of Precipitation, MM = Missing Value Source: NWS Daily Summary

Daily Weather History Graph

Daily Weather History Graph

Search for Another Location

Airport or City:

Trip Planner

Search our weather history database for the weather conditions in past years. The results will help you decide how hot, cold, wet, or windy it might be!

Date:

Astronomy

Dec. 09, 2012 Rise Set
Actual Time 7:33 AM EST 4:56 PM EST
Civil Twilight 7:03 AM EST 5:27 PM EST
Nautical Twilight 6:29 AM EST 6:01 PM EST
Astronomical Twilight 5:56 AM EST 6:34 PM EST
Moon 3:04 AM EST (12/9) 2:02 PM EST (12/9)
Length of Visible Light 10h 24m
Length of Day
9h 23m
Waning Crescent, 19% of the Moon is Illuminated
Dec 9
Waning Crescent
Dec 13
New
Dec 20
First Quarter
Dec 28
Full
Jan 4
Last Quarter

Hourly Weather History & Observations

Time (EST) Temp. Windchill Dew Point Humidity Pressure Visibility Wind Dir Wind Speed Gust Speed Precip Events Conditions
12:07 AM 42.8 °F 39.3 °F 39.2 °F 87% 30.07 in 10.0 mi NNE 5.8 mph - N/A   Overcast
12:53 AM 43.0 °F 41.3 °F 39.0 °F 86% 30.09 in 10.0 mi North 3.5 mph - N/A   Overcast
1:53 AM 41.0 °F 35.8 °F 37.9 °F 89% 30.11 in 10.0 mi NNE 8.1 mph - N/A   Overcast
2:53 AM 41.0 °F 36.4 °F 37.0 °F 86% 30.12 in 10.0 mi NE 6.9 mph - N/A   Overcast
3:53 AM 41.0 °F 35.8 °F 36.0 °F 82% 30.12 in 10.0 mi NE 8.1 mph - N/A   Overcast
4:37 AM 39.2 °F 33.6 °F 35.6 °F 87% 30.10 in 10.0 mi NE 8.1 mph - N/A   Overcast
4:53 AM 39.9 °F 35.8 °F 36.0 °F 86% 30.12 in 10.0 mi NE 5.8 mph - N/A   Overcast
5:53 AM 39.0 °F 31.4 °F 35.1 °F 86% 30.11 in 10.0 mi NE 12.7 mph - N/A   Overcast
6:21 AM 39.2 °F 33.0 °F 35.6 °F 87% 30.09 in 10.0 mi ENE 9.2 mph - N/A   Overcast
6:53 AM 39.9 °F 34.5 °F 35.1 °F 83% 30.12 in 10.0 mi NE 8.1 mph - N/A   Overcast
7:53 AM 39.9 °F 35.1 °F 35.1 °F 83% 30.12 in 10.0 mi NE 6.9 mph - N/A   Overcast
8:26 AM 39.2 °F 33.6 °F 33.8 °F 81% 30.10 in 10.0 mi NE 8.1 mph - N/A   Overcast
8:53 AM 39.9 °F 33.9 °F 34.0 °F 79% 30.12 in 10.0 mi ENE 9.2 mph - N/A   Overcast
9:53 AM 41.0 °F 37.1 °F 35.1 °F 79% 30.10 in 10.0 mi ENE 5.8 mph - N/A   Overcast
10:53 AM 44.1 °F 37.7 °F 37.9 °F 79% 30.07 in 10.0 mi ESE 12.7 mph - N/A   Overcast
11:38 AM 44.6 °F 42.2 °F 39.2 °F 81% 30.03 in 10.0 mi East 4.6 mph - N/A   Overcast
11:53 AM 46.9 °F - 39.9 °F 77% 30.04 in 10.0 mi East 8.1 mph - N/A   Overcast
12:09 PM 48.2 °F - 42.8 °F 82% 30.00 in 10.0 mi ESE 9.2 mph - N/A   Mostly Cloudy
12:53 PM 48.9 °F - 43.0 °F 80% 30.01 in 10.0 mi SE 6.9 mph - N/A   Mostly Cloudy
1:06 PM 48.2 °F - 42.8 °F 82% 29.97 in 10.0 mi ESE 11.5 mph - N/A   Overcast
1:37 PM 50.0 °F - 44.6 °F 82% 29.95 in 10.0 mi ESE 8.1 mph - N/A   Overcast
1:53 PM 50.0 °F - 45.0 °F 83% 29.96 in 10.0 mi ESE 6.9 mph - N/A   Overcast
2:13 PM 51.8 °F - 44.6 °F 76% 29.93 in 10.0 mi SE 8.1 mph - N/A   Overcast
2:42 PM 51.8 °F - 46.4 °F 82% 29.92 in 10.0 mi ESE 6.9 mph - 0.00 in Rain Light Rain
2:53 PM 50.0 °F - 46.0 °F 86% 29.94 in 8.0 mi ESE 8.1 mph - 0.01 in Rain Light Rain
3:20 PM 50.0 °F - 46.4 °F 87% 29.91 in 2.0 mi SE 5.8 mph - 0.06 in Rain Rain
3:33 PM 50.0 °F - 46.4 °F 87% 29.91 in 4.0 mi ESE 9.2 mph - 0.08 in Rain Light Rain
3:48 PM 50.0 °F - 48.2 °F 94% 29.91 in 10.0 mi SE 5.8 mph - 0.08 in Rain Light Rain
3:53 PM 50.0 °F - 48.0 °F 93% 29.94 in 10.0 mi SE 5.8 mph - 0.08 in   Overcast
4:40 PM 51.8 °F - 48.2 °F 88% 29.90 in 8.0 mi SSE 6.9 mph - 0.01 in   Overcast
4:53 PM 52.0 °F - 50.0 °F 93% 29.91 in 10.0 mi SE 10.4 mph - 0.01 in   Overcast
5:08 PM 51.8 °F - 50.0 °F 94% 29.88 in 10.0 mi SE 11.5 mph - N/A   Overcast
5:51 PM 53.6 °F - 51.8 °F 94% 29.87 in 10.0 mi SSE 10.4 mph - N/A   Overcast
5:53 PM 53.1 °F - 51.1 °F 93% 29.89 in 10.0 mi SSE 10.4 mph - N/A   Overcast
6:11 PM 53.6 °F - 51.8 °F 94% 29.86 in 10.0 mi SSE 11.5 mph - N/A   Overcast
6:32 PM 53.6 °F - 51.8 °F 94% 29.86 in 10.0 mi South 11.5 mph - N/A   Mostly Cloudy
6:53 PM 55.0 °F - 52.0 °F 89% 29.88 in 10.0 mi South 10.4 mph - N/A   Overcast
7:53 PM 55.0 °F - 53.1 °F 93% 29.87 in 10.0 mi South 11.5 mph - N/A   Overcast
8:53 PM 55.9 °F - 54.0 °F 93% 29.84 in 9.0 mi South 12.7 mph - 0.04 in Rain Light Rain
8:56 PM 55.4 °F - 53.6 °F 94% 29.82 in 10.0 mi South 12.7 mph - 0.00 in Rain Light Rain
9:28 PM 55.4 °F - 53.6 °F 94% 29.80 in 10.0 mi South 12.7 mph - 0.00 in   Mostly Cloudy
9:53 PM 57.0 °F - 54.0 °F 89% 29.81 in 10.0 mi South 11.5 mph - 0.00 in   Overcast
10:53 PM 57.0 °F - 55.0 °F 93% 29.78 in 10.0 mi South 12.7 mph 23.0 mph 0.00 in Rain Light Rain
11:53 PM 57.0 °F - 55.0 °F 93% 29.75 in 6.0 mi South 12.7 mph - 0.02 in Rain Light Rain